Location: Unspecified
(0.0000°N, 0.0000°E)
Time: 00:59:50
(UTC+00:00)

S-56A Canister/Altair - All Passes

Search period start: 20 July 2019 00:00
Search period end: 30 July 2019 00:00
Orbit: 632 x 2500 km, 38.9° (Epoch: 18 July)

Date Brightness Start Highest point End Pass type
(mag) Time Alt. Az. Time Alt. Az. Time Alt. Az.
20 Jul - 02:04:40 10° S 02:09:54 26° SE 02:16:59 10° E visible
20 Jul - 04:06:40 10° WSW 04:14:06 63° NW 04:25:28 10° NE visible
20 Jul - 06:14:25 10° WNW 06:21:20 19° NNW 06:29:49 10° NNE daylight
20 Jul - 12:46:50 10° NNW 12:56:54 23° NNE 13:05:04 10° ENE daylight
20 Jul - 14:51:39 10° NW 15:04:12 70° NE 15:12:28 10° ESE daylight
20 Jul - 17:00:45 10° W 17:08:36 26° SW 17:14:23 10° S daylight
21 Jul - 01:32:56 10° S 01:37:14 20° SE 01:42:42 10° E visible
21 Jul - 03:34:08 10° WSW 03:41:05 72° NW 03:51:52 10° NE visible
21 Jul - 05:41:00 10° WNW 05:47:49 21° NNW 05:56:28 10° NNE visible
21 Jul - 12:13:30 10° NNW 12:23:14 21° NNE 12:31:26 10° ENE daylight
21 Jul - 14:17:58 10° NW 14:31:00 62° NE 14:39:49 10° ESE daylight
21 Jul - 16:26:26 10° WNW 16:35:49 34° SW 16:42:25 10° SSE daylight
22 Jul - 01:01:35 10° SSE 01:04:35 14° SE 01:08:06 10° ESE visible
22 Jul - 03:01:42 10° SW 03:08:10 84° NW 03:18:16 10° NE visible
22 Jul - 05:07:46 10° WNW 05:14:25 23° NNW 05:23:07 10° NNE visible
22 Jul - 11:40:17 10° NNW 11:49:28 19° NNE 11:57:32 10° ENE daylight
22 Jul - 13:44:19 10° NW 13:57:41 55° NE 14:07:02 10° ESE daylight
22 Jul - 15:52:13 10° WNW 16:02:57 42° SW 16:10:19 10° SSE daylight
23 Jul - 02:29:19 10° SW 02:35:22 81° SE 02:44:40 10° NE visible
23 Jul - 04:34:40 10° W 04:41:06 25° NNW 04:49:46 10° NNE visible
23 Jul - 11:07:11 10° N 11:15:38 17° NNE 11:23:20 10° ENE daylight
23 Jul - 13:10:44 10° NNW 13:24:17 49° NE 13:34:08 10° ESE daylight
23 Jul - 15:18:05 10° WNW 15:30:01 52° SW 15:38:05 10° SSE daylight
24 Jul - 01:57:03 10° SW 02:02:40 66° SE 02:11:05 10° NE visible
24 Jul - 04:01:42 10° W 04:07:53 27° NNW 04:16:26 10° NNE visible
24 Jul - 10:34:15 10° N 10:41:43 15° NNE 10:48:47 10° NE daylight
24 Jul - 12:37:12 10° NNW 12:50:46 44° NE 13:01:05 10° ESE daylight
24 Jul - 14:44:01 10° WNW 14:56:58 62° SW 15:05:44 10° SE daylight
24 Jul - 16:58:46 10° WSW 17:01:29 11° SW 17:03:58 10° SSW daylight
25 Jul - 01:24:50 10° SSW 01:30:02 51° SE 01:37:31 10° ENE visible
25 Jul - 03:28:52 10° W 03:34:47 30° NNW 03:43:07 10° NNE visible
25 Jul - 10:01:36 10° N 10:07:46 13° NNE 10:13:46 10° NE daylight
25 Jul - 12:03:45 10° NNW 12:17:11 40° NE 12:27:53 10° E daylight
25 Jul - 14:10:02 10° NW 14:23:49 72° SW 14:33:16 10° SE daylight
25 Jul - 16:22:41 10° WSW 16:28:32 16° SW 16:33:22 10° S daylight
26 Jul - 00:52:43 10° SSW 00:57:28 38° SE 01:03:56 10° ENE visible
26 Jul - 02:56:07 10° W 03:01:47 34° NNW 03:09:52 10° NNE visible
26 Jul - 09:29:29 10° N 09:33:45 11° NNE 09:38:00 10° NE daylight
26 Jul - 11:30:24 10° NNW 11:43:31 36° NE 11:54:30 10° E daylight
26 Jul - 13:36:09 10° NW 13:50:34 82° SW 14:00:42 10° SE daylight
26 Jul - 15:47:29 10° W 15:55:32 21° SW 16:01:51 10° S daylight
27 Jul - 00:20:42 10° SSW 00:24:55 28° SE 00:30:20 10° ENE night (unlit)
27 Jul - 02:23:28 10° WSW 02:28:52 39° NW 02:36:38 10° NNE visible
27 Jul - 10:57:08 10° NNW 11:09:48 32° NE 11:20:55 10° E daylight
27 Jul - 13:02:21 10° NW 13:17:11 88° NE 13:28:01 10° SE daylight
27 Jul - 15:12:39 10° W 15:22:30 27° SW 15:30:00 10° S daylight
27 Jul - 23:48:49 10° S 23:52:24 21° SE 23:56:39 10° E night (unlit)
28 Jul - 01:50:52 10° WSW 01:56:02 45° NW 02:03:27 10° NE visible
28 Jul - 04:01:04 10° NNW 04:02:30 10° NNW 04:04:01 10° NNW visible
28 Jul - 10:23:59 10° NNW 10:36:03 28° NE 10:47:06 10° E daylight
28 Jul - 12:28:39 10° NW 12:43:44 79° NE 12:55:11 10° SE daylight
28 Jul - 14:38:01 10° WNW 14:49:23 33° SW 14:57:54 10° SSE daylight
28 Jul - 23:17:11 10° S 23:19:50 15° SE 23:22:47 10° E night (unlit)
29 Jul - 01:18:20 10° WSW 01:23:18 55° NW 01:30:18 10° NE visible
29 Jul - 03:27:07 10° NW 03:29:16 11° NNW 03:31:39 10° N visible
29 Jul - 09:50:59 10° NNW 10:02:15 25° NE 10:13:01 10° E daylight
29 Jul - 11:55:04 10° NW 12:10:12 70° NE 12:22:14 10° ESE daylight
29 Jul - 14:03:35 10° WNW 14:16:11 39° SW 14:25:38 10° SSE daylight
29 Jul - 22:46:26 10° SSE 22:47:14 10° SE 22:48:03 10° SE night (unlit)
